THORAD AGENA D DEB, 4945

Orbit data source: Space-Track

THORAD AGENA D DEB, 4945 is space debris in SSO originally from a launch on Wed, 08 Apr 1970 UTC launched from the Air Force Western Test Range (AFWTR). Debris objects in space refer to the collection of defunct objects orbiting the Earth. Examples of debris include non-operational satellites, rocket bodies, and fragments generated from explosions, collisions, or faulty payload assembly.

Loading next visibility...
Identifier
4945, 1970-025GF
Orbit
SSO
Country
Flag of USUS
Related business
Manufacturer
Unknown
Mission
Spacecraft
Bus & Motor
Unknown
Mass
Unknown
Launch date (UTC)
1970-04-08 (56 years ago)
Launch vehicle
Unknown
Launch site
Air Force Western Test Range (AFWTR)
Object type
Payload
Rocket body
Debris
Shape & HBR
Unknown shape, 0.1 m
Radar Cross Section
Small (<0.1 m²)

Expand to show TLE details & history
Last TLE update: 10 hours ago

TLE from 10 hours ago
0 THORAD AGENA D DEB
1  4945U 70025GF  25300.04340495  .00002747  00000-0  20469-2 0  9998
2  4945  99.8822 330.5693 0088587  18.0386 342.3882 13.94002600762698
Epoch: 2025-10-27T01:02Z
TLE epoch observation values (Epoch: 2025-10-27T01:02:30.187Z)
Latitude
-0.00007°
Longitude
-80.70738°
Altitude
855.942 km
Speed
7.456 km/s
True Right ascension
22h 02m 16s
True Declination
0° 00' 00"
Sunlit
Object was in partial shadow at epoch
Visualization orbit readout
Latitude
Unknown
Longitude
Unknown
Altitude
Unknown
Speed
Unknown
Apparent Right ascension
Unknown
Apparent Declination
Unknown
Sunlit
N/A
Visualization observer readout
Local Sidereal Time
06:10:15
Azimuth
Unknown
Elevation
Unknown
Doppler factor
Unknown
Orbital elements
Apogee altitude
976.47 km
Perigee altitude
847.31 km
Semi-major axis
7,290.027 km
Eccentricity
0.00886
Inclination
99.8822°
RAAN
330.5693°
Arg. of periapsis
18.0386°
True anomaly
342.07778°
Mean anomaly
342.3882°
Eccentric anomaly
342.23332°
Mean motion
3.48698 °/min
Orbital period
103.24 mins
BSTAR
0.0020469
Loading maneuver chart data...
Computing Atmospheric mass density...

Documentation

Showing up to 5 results
|